Flag for U.S.A. Weather past 2 weeks in Tuba City, Arizona, U.S.A.

Now
66 °F

Passing clouds.


Feels Like: 66 °F
Forecast: 65 / 91 °F
Wind: 3 mph from East

Location: Grand Canyon National Park Airport

Current Time: Jul 31, 2015 at 6:13:19 AM

Latest Report: Jul 31, 2015 at 4:54 AM


Visibility: 10 mi

Pressure: 30.04 "Hg (25.18 "Hg at 1510m altitude)

Humidity: 59%

Dew point: 51 °F

Location of Tuba CityLocation

Historic Weather in Tuba City — Graph

°F

Tuba City temperature yesterday

Maximum temperature yesterday: 79 °F (at 4:54 PM)
Minimum temperature yesterday: 54 °F (at 6:54 AM)
Average temperature yesterday: 69 °F

Past Weeks' High & Low Weather Summary

 TemperatureHumidityPressure
High88 °F (Jul 29, 2:54 PM)100% (Jul 19, 6:54 AM)30.21 "Hg (Jul 19, 6:54 AM)
Low39 °F (Jul 28, 6:54 AM)6% (Jul 26, 2:54 PM)29.80 "Hg (Jul 17, 8:54 PM)
Average66 °F46%29.99 "Hg
* Reported Jul 16 4:54 AM — Jul 31 4:54 AM, Tuba City, Weather by CustomWeather, © 2015

Note: Actual official high and low records may vary slightly from our data, if they occured in-between our weather recording intervals... More about our weather records

Advertising

Tuba City weather history for previous 24 hours

 ConditionsComfort  
Time TempWeatherWind HumidityBarometerVisibility
4:54 AM
Fri, Jul 31
66 °FPassing clouds.3 mph59%30.04 "Hg10 mi
3:54 AM65 °FOvercast.3 mph56%30.05 "Hg10 mi
2:54 AM64 °FPassing clouds.5 mph61%30.07 "Hg10 mi
1:54 AM60 °FPassing clouds.No wind60%30.10 "Hg10 mi
12:54 AM65 °FOvercast.No wind52%30.08 "Hg10 mi
11:54 PM
Thu, Jul 30
68 °FOvercast.No wind47%30.08 "Hg10 mi
10:54 PM70 °FPassing clouds.No wind42%30.05 "Hg10 mi
9:54 PM71 °FOvercast.3 mph42%30.05 "Hg10 mi
8:54 PM72 °FOvercast.7 mph40%30.06 "Hg10 mi
7:54 PM72 °FOvercast.8 mph40%30.07 "Hg10 mi
6:54 PM73 °FPartly sunny.9 mph46%30.09 "Hg10 mi
5:54 PM78 °FOvercast.8 mph31%30.07 "Hg10 mi
4:54 PM79 °FPartly sunny.9 mph32%30.07 "Hg10 mi
3:54 PM77 °FOvercast.12 mph31%30.09 "Hg10 mi
2:54 PM78 °FOvercast.8 mph31%30.11 "Hg10 mi
1:54 PM77 °FPartly sunny.5 mph36%30.11 "Hg10 mi
12:54 PM78 °FPartly sunny.N/A36%30.09 "Hg10 mi
11:54 AM76 °FPartly sunny.8 mph40%30.09 "Hg10 mi
10:54 AM75 °FSunny.5 mph42%30.08 "Hg10 mi
9:54 AM75 °FSunny.3 mph42%30.06 "Hg10 mi
8:54 AM68 °FSunny.No wind55%30.09 "Hg10 mi
7:54 AM63 °FSunny.No wind63%30.08 "Hg10 mi
6:54 AM54 °FSunny.No wind72%30.10 "Hg10 mi
Weather by CustomWeather, © 2015

See weather overviewHow to use our weather pages